Regional Weather Roundup
Issued by NWS

Home | Current Version | Previous Version | Text Only | Print | Product List | Glossary On
Versions: 1 2 3 4 5 6 7 8 9 10 11 12 13 14 15 16 17 18 19 20 21 22 23 24 25 26 27
000
ASUS42 KTBW 061216
RWRFL
FLORIDA REGIONAL WEATHER ROUNDUP
NATIONAL WEATHER SERVICE TAMPA BAY RUSKIN FL
700 AM EST TUE DEC 06 2016

NOTE: "FAIR" INDICATES FEW OR NO CLOUDS BELOW 12,000 FEET WITH NO
SIGNIFICANT WEATHER AND/OR OBSTRUCTIONS TO VISIBILITY.

FLZ001>010-012>015-112-114-115-061300-
PANHANDLE FLORIDA

CITY           SKY/WX    TMP DP  RH WIND       PRES   REMARKS
PENSACOLA      PTCLDY    65  60  84 W14G24    29.75R
PENSACOLA NAS  MOCLDY    64  60  87 W9G23     29.77R
MILTON NAS     CLOUDY    66  64  93 W17       29.75
CRESTVIEW      MOCLDY    69  66  90 SW13      29.73S
DUKE FIELD     FAIR      68  64  85 SW15      29.72R
VALPARAISO     MOCLDY    68  65  89 SW12G23   29.74R
MARY ESTHER    MOCLDY    67  63  86 W16       29.75R
PANAMA CITY    CLOUDY    74  71  91 SW12      29.73R
TYNDALL AFB    MOCLDY    72  71  96 W12       29.75R
APALACHICOLA   LGT RAIN  74  73  97 W20G30    29.77R

STATION/POSITION SKY/WX   TEMP    WIND        PRES    WAVE   SWELL
                          AIR SEA DIR/SP/G            HT/PER HT/PER
                          (F)     (DEG/KT/KT) (MB)    (FT/S) (FT/S)
30.1N   87.6W              65 69  260/ 25/ 31 1008.0R   7/ 6
29.2N   88.2W              68 75  270/ 21/ 27 1009.5R   6/ 7
28.8N   86.0W              77 75              1008.0    7/ 6
PANAMA CITY BEAC           72 68  240/ 15/ 16 1007.5R
TOWER C                    75     220/ 20/ 21 1009.0R
28.5N   84.5W              75 75  240/ 19/ 25 1009.2R   6/ 6

$$
FLZ011-016>038-118-127-128-134-139-239-061300-
NORTH FLORIDA

CITY           SKY/WX    TMP DP  RH WIND       PRES   REMARKS
MARIANNA       MOCLDY    73  71  93 SW15      29.71R
TALLAHASSEE    TSTM      74  72  93 SW15      29.75R FOG
PERRY          LGT RAIN  74  72  92 SW14G20   29.78S
CROSS CITY     CLOUDY    72  72 100 SW9       29.80F THUNDER
LAKE CITY      CLOUDY    72  72 100 SW9       29.79S THUNDER
GAINESVILLE    CLOUDY    74  71  91 S10       29.81S
WILLISTON      MOCLDY    77  75  94 S9G16     29.83R
PALATKA        CLOUDY    73  73 100 S8        29.84S
MAYPORT NAS    RAIN      71  69  93 S10       29.83S FOG
JACKSONVILLE   RAIN      71  71 100 SW9       29.79F FOG
JAX NAS        TSTM      71  70  96 S8        29.82F FOG
FERNANDINA BEA CLOUDY    73  72  94 S12       29.79F
ST AUGUSTINE   LGT RAIN  73  70  90 S6        29.85S FOG

STATION/POSITION SKY/WX   TEMP    WIND        PRES    WAVE   SWELL
                          AIR SEA DIR/SP/G            HT/PER HT/PER
                          (F)     (DEG/KT/KT) (MB)    (FT/S) (FT/S)
SHELL POINT      NOT AVBL
KEATON BEACH               70     220/ 14/ 16 1008.5S
CEDAR KEY                  71     190/ 18/ 22 1010.0S
FERNANDINA                 71 69  170/  7/ 12 1009.0F
30.7N   81.3W                 66                N/A     3/ 6
MAYPORT                    71 67  200/  7/ 10 1009.9F
31.4N   80.9W              68 65  180/ 14/ 16 1008.3F   4/ 5   2/11
ST AUGUSTINE               72 68  200/  7/  9 1011.1R

$$
FLZ040-043>046-052-053-057-058-063-144-061300-
INTERIOR CENTRAL FLORIDA

CITY           SKY/WX    TMP DP  RH WIND       PRES   REMARKS
OCALA          CLOUDY    73  70  88 S12       29.84S
THE VILLAGES     N/A     75  75 100 MISG      29.76S
LEESBURG       MOCLDY    75  70  84 S10       29.87S
SANFORD        MOCLDY    75  70  84 S12       29.88R
ORLANDO EXEC   CLOUDY    75  71  87 S13       29.89R
ORLANDO INTL   MOCLDY    75  71  87 S12       29.90R
KISSIMMEE      MOCLDY    75  72  90 S13       29.91R
WINTER HAVEN   MOCLDY    74  71  91 S8        29.91R
LAKELAND       MOCLDY    73  73 100 S9        29.91R
BARTOW         MOCLDY    73  73 100 S13       29.91R
OKEECHOBEE     CLOUDY    72  72 100 S10       29.95R

$$
FLZ041-047-054-059-064-141-147-061300-
EAST CENTRAL FLORIDA

CITY           SKY/WX    TMP DP  RH WIND       PRES   REMARKS
ORMOND BEACH   PTCLDY    73  72  94 S3        29.85
DAYTONA BEACH  CLOUDY    74  71  91 S13G23    29.86S
DELAND         CLOUDY    75  70  83 S13       29.86S
NEW SMYRNA BEA MOCLDY    75  70  83 SW14G26   29.86
JFK SPACE CTR  PTCLDY    75  71  87 S14       29.88S
TITUSVILLE     MOCLDY    73  72  94 S15       29.90
CAPE CANAVERAL PTCLDY    75  71  88 S13       29.89R
PATRICK AFB    CLEAR     76  73  91 SW14      29.91R
MELBOURNE      CLOUDY    76  73  91 S14       29.92R
VERO BEACH     CLOUDY    75  72  90 S13       29.94R
FT PIERCE      CLOUDY    75  72  90 S8        29.94R
STUART         CLEAR     77  73  88 S9        29.94S

STATION/POSITION SKY/WX   TEMP    WIND        PRES    WAVE   SWELL
                          AIR SEA DIR/SP/G            HT/PER HT/PER
                          (F)     (DEG/KT/KT) (MB)    (FT/S) (FT/S)
TRIDENT PIER               75 73  190/ 11/ 15 1012.6R
28.4N   80.5W                 72                N/A     3/ 5

$$
FLZ050-056-061-142-242-148-248-149-249-151-251-155-255-
160-260-061300-
WEST CENTRAL FLORIDA

CITY           SKY/WX    TMP DP  RH WIND       PRES   REMARKS
CRYSTAL RIVER  CLOUDY    77  72  83 S9G21     29.84F
INVERNESS      CLOUDY    77  72  83 S12G17    29.85F
BROOKSVILLE      N/A    N/A N/A N/A MISG        N/A
CLEARWATER AIR CLOUDY    73  73 100 S14G22    29.88R
ST PETE CLEARW MOCLDY    77  73  87 S20       29.88R
TAMPA INTL     MOCLDY    74  72  93 S15       29.89R
TAMPA EXEC     CLOUDY    79  72  78 SW15G23   29.90R
PLANT CITY     CLOUDY    77  75  94 S7        29.92R
MACDILL AFB    PTCLDY    74  74 100 SW17      29.89R
PETER O KNIGHT CLOUDY    79  75  89 SW18      29.89S
ST PETERSBURG  MOCLDY    75  73  93 SW16      29.87S
SARASOTA       CLOUDY    75  73  93 S15       29.89R
VENICE           N/A     73  73 100 S13G21    29.93R FOG

STATION/POSITION SKY/WX   TEMP    WIND        PRES    WAVE   SWELL
                          AIR SEA DIR/SP/G            HT/PER HT/PER
                          (F)     (DEG/KT/KT) (MB)    (FT/S) (FT/S)
CLEARWATER BEACH           75 71  180/ 23/ 25 1011.4R
MIDDLE TAMPA BAY           74     210/ 18/ 21 1012.1R
VENICE                     73 72  160/ 14/ 16 1012.3R

$$
FLZ066-069-070-075>078-162-262-165-265-061300-
SOUTHWEST FLORIDA AND KEYS

CITY           SKY/WX    TMP DP  RH WIND       PRES   REMARKS
PUNTA GORDA    CLOUDY    76  73  91 S14       29.95R
FT MYERS       MOCLDY    78  74  87 S9        29.93R
SOUTHWEST INTL CLEAR     77  73  87 S9        29.94R
NAPLES         CLEAR     77  73  87 S14       29.94R
MARCO ISLAND   CLOUDY    75  73  94 S9        29.96R
MARATHON       CLEAR     80  74  81 S7        29.97R
KEY WEST NAS   PTCLDY    77  74  90 S12       29.97S
KEY WEST INTL  CLEAR     79  76  90 S10       29.97S

STATION/POSITION SKY/WX   TEMP    WIND        PRES    WAVE   SWELL
                          AIR SEA DIR/SP/G            HT/PER HT/PER
                          (F)     (DEG/KT/KT) (MB)    (FT/S) (FT/S)
NAPLES                        74              1013.9R
26.0N   85.6W              79 78  210/ 16/ 19 1012.2R   6/ 7   2/13
DRY TORTUGAS               79     180/ 14/ 15 1014.2R
SAND KEY                   79     190/ 12/ 13 1015.3R
LONG KEY                   79 78  180/ 12/ 13 1014.9R
MOLASSES REEF              79 79  180/ 16/ 18 1015.0R

$$
FLZ067-068-071>074-168-172>174-061300-
SOUTHEAST FLORIDA

CITY           SKY/WX    TMP DP  RH WIND       PRES   REMARKS
W PALM BEACH   PTCLDY    76  72  87 S10       29.95F
BOCA RATON     PTCLDY    77  73  88 S9G15     29.95
FT LAUDER-EXEC PTCLDY    77  72  84 S8        29.95F
FT LAUDERDALE  PTCLDY    78  74  87 S12       29.95F
POMPANO BEACH  PTCLDY    78  73  84 S9        29.95F
PEMBROKE PINES PTCLDY    77  73  87 S8        29.97F
OPA LOCKA      CLEAR     78  73  84 S8        29.97S
MIAMI          PTCLDY    76  73  91 S8        29.97S
WEST KENDALL   CLEAR     77  73  87 S6        29.97R
HOMESTEAD      CLEAR     76  76 100 S6        29.97R

STATION/POSITION SKY/WX   TEMP    WIND        PRES    WAVE   SWELL
                          AIR SEA DIR/SP/G            HT/PER HT/PER
                          (F)     (DEG/KT/KT) (MB)    (FT/S) (FT/S)
PORT EVERGLADES            78     180/  9/ 12 1014.6S
VIRGINIA KEY               78 82  190/  9/ 11 1015.4R
LAKE WORTH                 78 78  190/ 17/ 20 1013.7F
FOWEY ROCKS                79 77  180/ 22/ 23 1015.3R

$$





USA.gov is the U.S. government's official web portal to all federal, state and local government web resources and services.